{"data":{"norad_id":56121,"epoch":"2026-05-25T03:57:54.563040Z","epoch_age_seconds":53971,"freshness":"FRESH","line1":"1 56121U 23046AE  26145.16521485  .00000004  00000+0  96556-5 0  9999","line2":"2 56121  43.0015  75.3065 0000839 243.6826 116.3939 15.27575690173894","mean_motion":15.2757569,"eccentricity":8.39e-5,"inclination_deg":43.0015,"raan_deg":75.3065,"arg_perigee_deg":243.6826,"mean_anomaly_deg":116.3939,"bstar":9.6556e-6,"rev_number":17389,"period_min":94.267014683901,"perigee_km":482.48634716426,"apogee_km":483.63765635676,"semimajor_km":6861.1990017605,"source":"CELESTRAK","updated_at":"2026-05-25T13:38:17.958488Z"}}